Location: Newark
(41.0400°S, 62.7845°W)
Time: 16:00:14
(UTC+00:00)

Vanguard 2 Rocket - Pass Details

Date: 06 December 2021
Orbit: 553 x 3325 km, 32.9° (Epoch: 23 January)

Event Time Altitude Azimuth Distance (km) Brightness Sun altitude
Rises 05:59:59 0° 337° (NNW) 7,031 - -20.8°
Reaches altitude 10° 06:05:45 10° 348° (NNW) 6,197 - -20.3°
Exits shadow 06:09:32 16° 356° (N) 5,709 10.4 -19.9°
Maximum altitude 06:20:57 28° 37° (NE) 4,815 10.3 -18.7°
Drops below altitude 10° 06:34:24 10° 86° (E) 5,517 11.3 -17.3°
Sets 06:39:00 0° 96° (E) 6,176 11.8 -16.8°
